| time (UTC) | temp C | wind direction | speed KPH | gust KPH | rain 1hr cm | rain 24hr cm | rain mn cm | humidity % | barometer mb |
| 20260510104338 | 10 | 106 | 3.2 | 3.2 | 0.00 | 0.00 | 0.00 | 99 | 1012.8 |
| 20260510103834 | 10 | 50 | 0.0 | 3.2 | 0.00 | 0.00 | 0.00 | 99 | 1013.0 |
| 20260510103331 | 10 | 100 | 3.2 | 3.2 | 0.00 | 0.00 | 0.00 | 99 | 1012.7 |
| 20260510102827 | 10 | 131 | 3.2 | 4.8 | 0.00 | 0.00 | 0.00 | 99 | 1012.7 |
| 20260510102323 | 10 | 98 | 1.6 | 3.2 | 0.00 | 0.00 | 0.00 | 99 | 1012.7 |
| 20260510101820 | 10 | 92 | 3.2 | 4.8 | 0.00 | 0.00 | 0.00 | 99 | 1012.6 |
| 20260510101318 | 10 | 84 | 3.2 | 4.8 | 0.00 | 0.00 | 0.00 | 99 | 1012.5 |
| 20260510100814 | 10 | 95 | 3.2 | 3.2 | 0.00 | 0.00 | 0.00 | 99 | 1012.3 |
| 20260510100312 | 10 | 110 | 1.6 | 3.2 | 0.00 | 0.00 | 0.00 | 99 | 1012.5 |
| 20260510095808 | 10 | 126 | 3.2 | 4.8 | 0.00 | 0.00 | 0.00 | 99 | 1012.4 |
| 20260510095305 | 10 | 35 | 0.0 | 3.2 | 0.00 | 0.00 | 0.00 | 99 | 1012.3 |
| 20260510094802 | 10 | 68 | 3.2 | 3.2 | 0.00 | 0.00 | 0.00 | 99 | 1012.6 |
| 20260510094258 | 10 | 88 | 1.6 | 3.2 | 0.00 | 0.00 | 0.00 | 99 | 1012.4 |
| 20260510093754 | 10 | 113 | 1.6 | 1.6 | 0.00 | 0.00 | 0.00 | 99 | 1012.4 |
| 20260510093251 | 10 | 87 | 1.6 | 3.2 | 0.00 | 0.00 | 0.00 | 99 | 1012.2 |
| 20260510092747 | 10 | 122 | 3.2 | 4.8 | 0.00 | 0.00 | 0.00 | 99 | 1012.5 |
| 20260510092243 | 10 | 131 | 3.2 | 3.2 | 0.00 | 0.00 | 0.00 | 99 | 1012.3 |
| 20260510091739 | 10 | 89 | 1.6 | 1.6 | 0.00 | 0.00 | 0.00 | 99 | 1012.5 |
| 20260510091236 | 10 | 108 | 0.0 | 1.6 | 0.00 | 0.00 | 0.00 | 99 | 1012.5 |
| 20260510090732 | 10 | 98 | 0.0 | 3.2 | 0.00 | 0.00 | 0.00 | 99 | 1012.6 |
| 20260510090230 | 10 | 144 | 0.0 | 3.2 | 0.00 | 0.00 | 0.00 | 99 | 1012.4 |
| 20260510085725 | 10 | 76 | 1.6 | 3.2 | 0.00 | 0.00 | 0.00 | 99 | 1012.4 |
| 20260510085220 | 10 | 74 | 1.6 | 3.2 | 0.00 | 0.00 | 0.00 | 99 | 1012.4 |
| 20260510084716 | 10 | 128 | 3.2 | 3.2 | 0.00 | 0.00 | 0.00 | 99 | 1012.3 |
| 20260510084213 | 10 | 50 | 3.2 | 4.8 | 0.00 | 0.00 | 0.00 | 99 | 1012.5 |
| 20260510083709 | 10 | 50 | 3.2 | 4.8 | 0.00 | 0.00 | 0.00 | 99 | 1012.6 |
| 20260510083207 | 10 | 41 | 3.2 | 4.8 | 0.00 | 0.00 | 0.00 | 99 | 1012.2 |
| 20260510082702 | 10 | 28 | 4.8 | 4.8 | 0.00 | 0.00 | 0.00 | 99 | 1012.5 |
| 20260510082159 | 10 | 68 | 3.2 | 4.8 | 0.00 | 0.00 | 0.00 | 99 | 1012.6 |
| 20260510081653 | 10 | 17 | 3.2 | 4.8 | 0.00 | 0.00 | 0.00 | 99 | 1012.6 |
| 20260510081149 | 10 | 27 | 4.8 | 6.4 | 0.00 | 0.00 | 0.00 | 99 | 1012.9 |
| 20260510080648 | 10 | 34 | 4.8 | 4.8 | 0.00 | 0.00 | 0.00 | 99 | 1012.7 |
| 20260510080146 | 9 | 40 | 4.8 | 4.8 | 0.00 | 0.00 | 0.00 | 99 | 1012.8 |
| 20260510075643 | 9 | 18 | 6.4 | 6.4 | 0.00 | 0.00 | 0.00 | 99 | 1012.7 |
| 20260510075140 | 9 | 30 | 4.8 | 8.0 | 0.00 | 0.00 | 0.00 | 99 | 1012.8 |
| 20260510074637 | 9 | 77 | 3.2 | 3.2 | 0.00 | 0.00 | 0.00 | 99 | 1012.5 |
| 20260510074132 | 9 | 356 | 9.7 | 9.7 | 0.00 | 0.00 | 0.00 | 99 | 1012.6 |
| 20260510073629 | 9 | 15 | 3.2 | 9.7 | 0.00 | 0.00 | 0.00 | 99 | 1012.7 |
| 20260510073126 | 9 | 6 | 6.4 | 6.4 | 0.00 | 0.00 | 0.00 | 99 | 1012.0 |
| 20260510072622 | 9 | 44 | 1.6 | 1.6 | 0.00 | 0.00 | 0.00 | 99 | 1011.8 |
| 20260510072118 | 9 | 44 | 0.0 | 1.6 | 0.00 | 0.00 | 0.00 | 99 | 1012.0 |
| 20260510071614 | 9 | 13 | 1.6 | 3.2 | 0.00 | 0.00 | 0.00 | 99 | 1011.8 |
| 20260510071112 | 9 | 116 | 1.6 | 3.2 | 0.00 | 0.00 | 0.00 | 99 | 1011.8 |
| 20260510070609 | 9 | 325 | 0.0 | 0.0 | 0.00 | 0.00 | 0.00 | 99 | 1011.8 |
| 20260510070107 | 9 | 36 | 1.6 | 1.6 | 0.00 | 0.00 | 0.00 | 99 | 1011.8 |
| 20260510065602 | 9 | 37 | 0.0 | 1.6 | 0.00 | 0.00 | 0.00 | 99 | 1012.1 |
| 20260510065058 | 9 | 27 | 3.2 | 3.2 | 0.00 | 0.00 | 0.00 | 99 | 1011.9 |
| 20260510064555 | 9 | 15 | 3.2 | 3.2 | 0.00 | 0.00 | 0.00 | 99 | 1012.1 |
| 20260510064052 | 9 | 31 | 0.0 | 0.0 | 0.00 | 0.00 | 0.00 | 99 | 1012.0 |
| 20260510063549 | 9 | 27 | 0.0 | 1.6 | 0.00 | 0.00 | 0.00 | 99 | 1012.0 |
| 20260510063046 | 9 | 56 | 1.6 | 3.2 | 0.00 | 0.00 | 0.00 | 99 | 1012.0 |
| 20260510062542 | 9 | 34 | 3.2 | 3.2 | 0.00 | 0.00 | 0.00 | 99 | 1012.1 |
| 20260510062037 | 9 | 36 | 3.2 | 3.2 | 0.00 | 0.00 | 0.00 | 99 | 1012.0 |
| 20260510061534 | 9 | 29 | 4.8 | 6.4 | 0.00 | 0.00 | 0.00 | 99 | 1012.2 |
| 20260510061030 | 10 | 3 | 4.8 | 6.4 | 0.00 | 0.00 | 0.00 | 99 | 1012.3 |
| 20260510060527 | 10 | 0 | 4.8 | 6.4 | 0.00 | 0.00 | 0.00 | 99 | 1012.2 |
| 20260510060023 | 9 | 18 | 3.2 | 4.8 | 0.00 | 0.00 | 0.00 | 99 | 1012.1 |
| 20260510055519 | 8 | 21 | 3.2 | 4.8 | 0.00 | 0.00 | 0.00 | 99 | 1012.0 |
| 20260510055018 | 8 | 50 | 1.6 | 3.2 | 0.00 | 0.00 | 0.00 | 98 | 1011.9 |
| 20260510054513 | 8 | 64 | 3.2 | 3.2 | 0.00 | 0.00 | 0.00 | 98 | 1011.7 |
| 20260510054003 | 8 | 33 | 3.2 | 4.8 | 0.00 | 0.00 | 0.00 | 98 | 1011.8 |
| 20260510053503 | 8 | 57 | 3.2 | 3.2 | 0.00 | 0.00 | 0.00 | 98 | 1011.8 |
| 20260510053000 | 8 | 107 | 1.6 | 3.2 | 0.00 | 0.00 | 0.00 | 98 | 1012.0 |
| 20260510052456 | 8 | 41 | 1.6 | 3.2 | 0.00 | 0.00 | 0.00 | 98 | 1011.8 |
| 20260510051952 | 8 | 14 | 1.6 | 3.2 | 0.00 | 0.00 | 0.00 | 98 | 1011.9 |
| 20260510051448 | 8 | 118 | 3.2 | 3.2 | 0.00 | 0.00 | 0.00 | 98 | 1012.0 |
| 20260510050944 | 7 | 47 | 0.0 | 3.2 | 0.00 | 0.00 | 0.00 | 98 | 1012.0 |
| 20260510050442 | 7 | 32 | 1.6 | 3.2 | 0.00 | 0.00 | 0.00 | 98 | 1012.1 |
| 20260510045939 | 7 | 45 | 1.6 | 3.2 | 0.00 | 0.00 | 0.00 | 98 | 1012.0 |
| 20260510045436 | 8 | 40 | 1.6 | 1.6 | 0.00 | 0.00 | 0.00 | 98 | 1012.0 |
| 20260510044933 | 8 | 40 | 1.6 | 3.2 | 0.00 | 0.00 | 0.00 | 98 | 1012.0 |
| 20260510044430 | 8 | 42 | 3.2 | 3.2 | 0.00 | 0.00 | 0.00 | 98 | 1012.0 |
| 20260510043926 | 8 | 45 | 1.6 | 3.2 | 0.00 | 0.00 | 0.00 | 98 | 1012.3 |
| 20260510043422 | 8 | 45 | 3.2 | 4.8 | 0.00 | 0.00 | 0.00 | 98 | 1012.1 |
| 20260510042921 | 8 | 52 | 1.6 | 3.2 | 0.00 | 0.00 | 0.00 | 98 | 1012.1 |
| 20260510042416 | 8 | 51 | 0.0 | 1.6 | 0.00 | 0.00 | 0.00 | 98 | 1012.0 |
| 20260510041912 | 8 | 41 | 1.6 | 3.2 | 0.00 | 0.00 | 0.00 | 98 | 1011.8 |
| 20260510041409 | 8 | 57 | 0.0 | 3.2 | 0.00 | 0.00 | 0.00 | 98 | 1012.0 |
| 20260510040907 | 8 | 30 | 1.6 | 3.2 | 0.00 | 0.00 | 0.00 | 98 | 1012.0 |
| 20260510040404 | 8 | 56 | 0.0 | 3.2 | 0.00 | 0.00 | 0.00 | 98 | 1012.1 |
| 20260510035859 | 8 | 42 | 1.6 | 3.2 | 0.00 | 0.86 | 0.86 | 98 | 1012.0 |
| 20260510035355 | 8 | 33 | 3.2 | 3.2 | 0.00 | 0.86 | 0.86 | 98 | 1012.1 |
| 20260510034850 | 8 | 43 | 1.6 | 3.2 | 0.00 | 0.86 | 0.86 | 98 | 1012.0 |
| 20260510034349 | 8 | 38 | 3.2 | 4.8 | 0.00 | 0.86 | 0.86 | 98 | 1012.0 |
| 20260510033845 | 8 | 28 | 3.2 | 4.8 | 0.00 | 0.86 | 0.86 | 98 | 1012.0 |
| 20260510033342 | 8 | 40 | 3.2 | 3.2 | 0.00 | 0.86 | 0.86 | 98 | 1012.0 |
| 20260510032838 | 8 | 64 | 1.6 | 3.2 | 0.00 | 0.86 | 0.86 | 97 | 1011.9 |
| 20260510032336 | 8 | 123 | 0.0 | 3.2 | 0.00 | 0.86 | 0.86 | 97 | 1012.0 |
| 20260510031831 | 8 | 120 | 0.0 | 0.0 | 0.00 | 0.86 | 0.86 | 97 | 1011.9 |
| 20260510031327 | 8 | 54 | 3.2 | 3.2 | 0.00 | 0.86 | 0.86 | 97 | 1011.7 |
| 20260510030826 | 8 | 39 | 3.2 | 3.2 | 0.00 | 0.86 | 0.86 | 97 | 1011.7 |
| 20260510030323 | 8 | 38 | 3.2 | 3.2 | 0.00 | 0.86 | 0.86 | 97 | 1011.7 |
| 20260510025820 | 8 | 58 | 1.6 | 3.2 | 0.00 | 0.86 | 0.86 | 97 | 1011.7 |
| 20260510025318 | 9 | 52 | 3.2 | 4.8 | 0.00 | 0.86 | 0.86 | 97 | 1011.8 |
| 20260510024814 | 9 | 27 | 3.2 | 3.2 | 0.00 | 0.86 | 0.86 | 97 | 1012.0 |
| 20260510024311 | 9 | 66 | 1.6 | 3.2 | 0.00 | 0.86 | 0.86 | 97 | 1011.6 |
| 20260510023808 | 9 | 40 | 3.2 | 3.2 | 0.00 | 0.86 | 0.86 | 97 | 1011.9 |
| 20260510023304 | 9 | 40 | 3.2 | 3.2 | 0.00 | 0.86 | 0.86 | 97 | 1011.7 |
| 20260510022801 | 9 | 56 | 0.0 | 3.2 | 0.00 | 0.86 | 0.86 | 97 | 1011.8 |
| 20260510022300 | 9 | 157 | 0.0 | 3.2 | 0.00 | 0.86 | 0.86 | 97 | 1011.8 |
| 20260510021800 | 10 | 72 | 1.6 | 3.2 | 0.00 | 0.86 | 0.86 | 97 | 1011.8 |
| 20260510021258 | 10 | 36 | 3.2 | 3.2 | 0.00 | 0.86 | 0.86 | 97 | 1011.6 |
| 20260510020754 | 10 | 145 | 3.2 | 3.2 | 0.00 | 0.86 | 0.86 | 97 | 1011.8 |
| 20260510020254 | 10 | 131 | 1.6 | 3.2 | 0.00 | 0.86 | 0.86 | 97 | 1011.8 |
| 20260510015750 | 10 | 41 | 3.2 | 3.2 | 0.00 | 0.86 | 0.86 | 97 | 1011.9 |
| 20260510015247 | 10 | 34 | 3.2 | 3.2 | 0.00 | 0.86 | 0.86 | 97 | 1011.7 |
| 20260510014741 | 10 | 111 | 0.0 | 3.2 | 0.00 | 0.86 | 0.86 | 97 | 1011.9 |
| 20260510014239 | 10 | 82 | 0.0 | 3.2 | 0.00 | 0.86 | 0.86 | 97 | 1011.7 |
| 20260510013735 | 10 | 77 | 3.2 | 3.2 | 0.00 | 0.86 | 0.86 | 97 | 1011.9 |
| 20260510013230 | 10 | 87 | 3.2 | 3.2 | 0.00 | 0.86 | 0.86 | 97 | 1011.6 |
| 20260510012725 | 11 | 95 | 3.2 | 3.2 | 0.00 | 0.86 | 0.86 | 97 | 1011.7 |
| 20260510012220 | 11 | 102 | 1.6 | 3.2 | 0.00 | 0.86 | 0.86 | 96 | 1011.6 |
| 20260510011720 | 11 | 128 | 3.2 | 3.2 | 0.00 | 0.86 | 0.86 | 96 | 1011.4 |
| 20260510011216 | 11 | 160 | 0.0 | 3.2 | 0.00 | 0.86 | 0.86 | 96 | 1011.5 |
| 20260510010713 | 11 | 47 | 1.6 | 3.2 | 0.00 | 0.86 | 0.86 | 96 | 1011.6 |
| 20260510010209 | 11 | 85 | 1.6 | 3.2 | 0.00 | 0.86 | 0.86 | 96 | 1011.8 |
| 20260510005706 | 11 | 70 | 1.6 | 3.2 | 0.00 | 0.86 | 0.86 | 96 | 1011.5 |
| 20260510005203 | 11 | 106 | 1.6 | 3.2 | 0.00 | 0.86 | 0.86 | 96 | 1011.6 |
| 20260510004702 | 11 | 58 | 1.6 | 1.6 | 0.00 | 0.86 | 0.86 | 96 | 1011.2 |
| 20260510004159 | 11 | 127 | 3.2 | 3.2 | 0.00 | 0.86 | 0.86 | 96 | 1011.4 |
| 20260510003656 | 11 | 100 | 1.6 | 3.2 | 0.00 | 0.86 | 0.86 | 96 | 1011.1 |
| 20260510003151 | 11 | 94 | 1.6 | 3.2 | 0.00 | 0.86 | 0.86 | 96 | 1011.3 |
| 20260510002651 | 11 | 107 | 3.2 | 4.8 | 0.00 | 0.86 | 0.86 | 96 | 1011.4 |
| 20260510002149 | 11 | 125 | 3.2 | 6.4 | 0.00 | 0.86 | 0.86 | 96 | 1011.1 |
| 20260510001646 | 11 | 110 | 3.2 | 3.2 | 0.00 | 0.86 | 0.86 | 96 | 1010.8 |
| 20260510001144 | 11 | 112 | 3.2 | 6.4 | 0.00 | 0.86 | 0.86 | 96 | 1010.9 |
| 20260510000644 | 11 | 121 | 3.2 | 4.8 | 0.00 | 0.86 | 0.86 | 96 | 1010.9 |
| 20260510000142 | 11 | 156 | 3.2 | 4.8 | 0.00 | 0.86 | 0.86 | 95 | 1011.1 |
| 20260509235638 | 11 | 115 | 3.2 | 6.4 | 0.00 | 0.86 | 0.86 | 95 | 1011.0 |
| 20260509235135 | 12 | 153 | 3.2 | 6.4 | 0.00 | 0.86 | 0.86 | 95 | 1011.0 |
| 20260509234631 | 12 | 135 | 3.2 | 3.2 | 0.00 | 0.86 | 0.86 | 94 | 1011.0 |
| 20260509234129 | 12 | 127 | 0.0 | 3.2 | 0.00 | 0.86 | 0.86 | 94 | 1011.1 |
| 20260509233626 | 12 | 93 | 3.2 | 6.4 | 0.00 | 0.86 | 0.86 | 94 | 1010.8 |
| 20260509233124 | 12 | 167 | 3.2 | 6.4 | 0.00 | 0.86 | 0.86 | 94 | 1010.9 |
| 20260509232620 | 12 | 105 | 6.4 | 8.0 | 0.00 | 0.86 | 0.86 | 94 | 1010.7 |
| 20260509232117 | 12 | 180 | 4.8 | 6.4 | 0.00 | 0.86 | 0.86 | 94 | 1010.9 |
| 20260509231613 | 12 | 133 | 4.8 | 6.4 | 0.00 | 0.86 | 0.86 | 94 | 1011.0 |
| 20260509231111 | 12 | 164 | 1.6 | 3.2 | 0.00 | 0.86 | 0.86 | 94 | 1010.8 |
| 20260509230608 | 12 | 171 | 3.2 | 4.8 | 0.00 | 0.86 | 0.86 | 94 | 1010.8 |
| 20260509230105 | 12 | 165 | 4.8 | 6.4 | 0.00 | 0.86 | 0.86 | 93 | 1010.6 |
| 20260509225600 | 12 | 142 | 4.8 | 4.8 | 0.00 | 0.86 | 0.86 | 93 | 1010.6 |
| 20260509225056 | 12 | 120 | 4.8 | 6.4 | 0.00 | 0.86 | 0.86 | 92 | 1010.7 |
| 20260509224551 | 12 | 152 | 6.4 | 6.4 | 0.00 | 0.86 | 0.86 | 91 | 1010.8 |
| 20260509224049 | 12 | 130 | 3.2 | 4.8 | 0.00 | 0.86 | 0.86 | 91 | 1010.9 |
| 20260509223546 | 12 | 129 | 3.2 | 4.8 | 0.00 | 0.86 | 0.86 | 90 | 1010.9 |
| 20260509223044 | 12 | 127 | 0.0 | 3.2 | 0.00 | 0.86 | 0.86 | 89 | 1010.9 |
| 20260509222539 | 12 | 140 | 1.6 | 3.2 | 0.00 | 0.86 | 0.86 | 90 | 1010.7 |
| 20260509222036 | 12 | 112 | 1.6 | 3.2 | 0.00 | 0.86 | 0.86 | 90 | 1010.7 |
| 20260509221531 | 13 | 125 | 3.2 | 3.2 | 0.00 | 0.86 | 0.86 | 92 | 1010.8 |
| 20260509221027 | 13 | 114 | 3.2 | 3.2 | 0.00 | 0.86 | 0.86 | 91 | 1011.1 |
| 20260509220523 | 12 | 60 | 0.0 | 3.2 | 0.00 | 0.86 | 0.86 | 91 | 1010.9 |
| 20260509220020 | 12 | 74 | 0.0 | 3.2 | 0.00 | 0.86 | 0.86 | 88 | 1010.8 |
| 20260509215515 | 12 | 51 | 0.0 | 0.0 | 0.00 | 0.86 | 0.86 | 88 | 1010.8 |
| 20260509215013 | 12 | 79 | 0.0 | 3.2 | 0.00 | 0.86 | 0.86 | 90 | 1010.9 |
| 20260509214510 | 12 | 35 | 3.2 | 4.8 | 0.00 | 0.86 | 0.86 | 90 | 1010.7 |
| 20260509214007 | 12 | 53 | 3.2 | 4.8 | 0.00 | 0.86 | 0.86 | 89 | 1010.9 |
| 20260509213502 | 12 | 37 | 4.8 | 4.8 | 0.00 | 0.86 | 0.86 | 90 | 1010.8 |
| 20260509213000 | 12 | 36 | 3.2 | 4.8 | 0.00 | 0.86 | 0.86 | 89 | 1011.0 |
| 20260509212457 | 12 | 34 | 4.8 | 6.4 | 0.00 | 0.86 | 0.86 | 91 | 1011.0 |
| 20260509211953 | 12 | 32 | 4.8 | 6.4 | 0.00 | 0.86 | 0.86 | 91 | 1011.2 |
| 20260509211449 | 12 | 9 | 3.2 | 4.8 | 0.00 | 0.86 | 0.86 | 90 | 1011.1 |
| 20260509210946 | 13 | 344 | 3.2 | 4.8 | 0.00 | 0.86 | 0.86 | 90 | 1011.2 |
| 20260509210443 | 13 | 17 | 3.2 | 6.4 | 0.00 | 0.86 | 0.86 | 90 | 1011.0 |
| 20260509205938 | 12 | 24 | 0.0 | 4.8 | 0.00 | 0.86 | 0.86 | 94 | 1011.2 |
| 20260509205433 | 12 | 359 | 3.2 | 6.4 | 0.05 | 0.86 | 0.86 | 95 | 1010.9 |
| 20260509204929 | 12 | 46 | 3.2 | 3.2 | 0.05 | 0.86 | 0.86 | 96 | 1011.1 |
| 20260509204425 | 12 | 88 | 3.2 | 3.2 | 0.00 | 0.84 | 0.84 | 96 | 1011.1 |
| 20260509203922 | 11 | 45 | 0.0 | 3.2 | 0.05 | 0.84 | 0.84 | 96 | 1011.0 |
| 20260509203418 | 11 | 42 | 1.6 | 1.6 | 0.05 | 0.84 | 0.84 | 96 | 1011.2 |
| 20260509202916 | 11 | 67 | 1.6 | 3.2 | 0.00 | 0.84 | 0.84 | 96 | 1010.9 |
| 20260509202411 | 11 | 44 | 1.6 | 3.2 | 0.05 | 0.84 | 0.84 | 95 | 1010.9 |
| 20260509201906 | 11 | 116 | 1.6 | 3.2 | 0.18 | 0.84 | 0.84 | 95 | 1011.2 |
| 20260509201402 | 11 | 69 | 1.6 | 3.2 | 0.61 | 0.81 | 0.81 | 95 | 1011.2 |
| 20260509200900 | 11 | 47 | 1.6 | 1.6 | 0.36 | 0.76 | 0.76 | 95 | 1011.4 |
| 20260509200359 | 11 | 9 | 1.6 | 3.2 | 0.05 | 0.71 | 0.71 | 95 | 1011.1 |
| 20260509195857 | 11 | 28 | 3.2 | 3.2 | 0.00 | 0.71 | 0.71 | 95 | 1011.2 |
| 20260509195356 | 11 | 58 | 3.2 | 3.2 | 0.00 | 0.71 | 0.71 | 94 | 1011.2 |
| 20260509194856 | 11 | 47 | 3.2 | 4.8 | 0.05 | 0.71 | 0.71 | 94 | 1011.2 |
| 20260509194353 | 11 | 53 | 3.2 | 4.8 | 0.18 | 0.71 | 0.71 | 94 | 1011.6 |
| 20260509193850 | 11 | 35 | 3.2 | 4.8 | 0.18 | 0.71 | 0.71 | 94 | 1011.7 |
| 20260509193349 | 11 | 21 | 3.2 | 8.0 | 0.13 | 0.69 | 0.69 | 94 | 1011.5 |
| 20260509192846 | 11 | 2 | 4.8 | 6.4 | 0.18 | 0.66 | 0.66 | 94 | 1011.7 |
| 20260509192342 | 11 | 30 | 6.4 | 6.4 | 0.13 | 0.66 | 0.66 | 94 | 1012.1 |
| 20260509191837 | 11 | 4 | 4.8 | 6.4 | 0.43 | 0.64 | 0.64 | 94 | 1012.0 |
| 20260509191333 | 11 | 60 | 0.0 | 3.2 | 0.43 | 0.61 | 0.61 | 93 | 1012.3 |
| 20260509190830 | 11 | 40 | 3.2 | 3.2 | 0.13 | 0.56 | 0.56 | 93 | 1012.6 |
| 20260509190327 | 11 | 8 | 3.2 | 6.4 | 0.13 | 0.56 | 0.56 | 93 | 1012.2 |
| 20260509185824 | 11 | 26 | 4.8 | 6.4 | 0.30 | 0.53 | 0.53 | 93 | 1012.5 |
| 20260509185320 | 11 | 10 | 4.8 | 6.4 | 0.30 | 0.51 | 0.51 | 93 | 1012.4 |
| 20260509184818 | 11 | 7 | 4.8 | 6.4 | 0.30 | 0.48 | 0.48 | 93 | 1012.5 |
| 20260509184315 | 11 | 16 | 6.4 | 6.4 | 0.18 | 0.46 | 0.46 | 93 | 1012.2 |
| 20260509183812 | 11 | 14 | 3.2 | 6.4 | 0.18 | 0.43 | 0.43 | 93 | 1012.4 |
| 20260509183307 | 11 | 24 | 4.8 | 4.8 | 0.23 | 0.43 | 0.43 | 93 | 1012.5 |
| 20260509182803 | 12 | 18 | 4.8 | 4.8 | 0.30 | 0.41 | 0.41 | 93 | 1012.5 |
| 20260509182300 | 12 | 44 | 0.0 | 3.2 | 0.30 | 0.38 | 0.38 | 94 | 1012.5 |
| 20260509181757 | 12 | 60 | 0.0 | 3.2 | 0.23 | 0.36 | 0.36 | 93 | 1012.4 |
| 20260509181254 | 12 | 37 | 1.6 | 3.2 | 0.18 | 0.33 | 0.33 | 93 | 1012.5 |
| 20260509180752 | 12 | 35 | 3.2 | 3.2 | 0.13 | 0.30 | 0.30 | 92 | 1012.4 |
| 20260509180248 | 12 | 36 | 1.6 | 4.8 | 0.13 | 0.30 | 0.30 | 92 | 1012.3 |
| 20260509175744 | 12 | 18 | 3.2 | 6.4 | 0.13 | 0.28 | 0.28 | 91 | 1012.2 |
| 20260509175241 | 12 | 12 | 4.8 | 6.4 | 0.13 | 0.28 | 0.28 | 91 | 1012.4 |
| 20260509174737 | 12 | 19 | 3.2 | 3.2 | 0.13 | 0.28 | 0.28 | 91 | 1012.3 |
| 20260509174232 | 12 | 41 | 3.2 | 4.8 | 0.13 | 0.25 | 0.25 | 90 | 1012.3 |
| 20260509173729 | 12 | 17 | 4.8 | 6.4 | 0.13 | 0.23 | 0.23 | 90 | 1011.9 |
| 20260509173224 | 12 | 24 | 4.8 | 4.8 | 0.23 | 0.23 | 0.23 | 89 | 1012.1 |
| 20260509172721 | 12 | 15 | 3.2 | 4.8 | 0.30 | 0.23 | 0.23 | 89 | 1012.4 |
| 20260509172217 | 12 | 62 | 0.0 | 3.2 | 0.23 | 0.18 | 0.18 | 88 | 1012.5 |
| 20260509171713 | 12 | 13 | 3.2 | 3.2 | 0.30 | 0.18 | 0.18 | 86 | 1012.6 |
| 20260509171209 | 12 | 43 | 1.6 | 4.8 | 0.18 | 0.15 | 0.15 | 85 | 1012.5 |
| 20260509170706 | 13 | 110 | 3.2 | 3.2 | 0.05 | 0.10 | 0.10 | 85 | 1012.6 |
| 20260509170202 | 13 | 145 | 3.2 | 6.4 | 0.05 | 0.10 | 0.10 | 84 | 1012.6 |
| 20260509165701 | 13 | 174 | 0.0 | 9.7 | 0.05 | 0.10 | 0.10 | 81 | 1012.9 |
| 20260509165156 | 13 | 203 | 4.8 | 9.7 | 0.05 | 0.10 | 0.10 | 80 | 1012.5 |
| 20260509164652 | 13 | 216 | 0.0 | 6.4 | 0.13 | 0.10 | 0.10 | 81 | 1012.6 |
| 20260509164148 | 13 | 207 | 1.6 | 3.2 | 0.13 | 0.08 | 0.08 | 80 | 1012.5 |
| 20260509163646 | 13 | 31 | 4.8 | 4.8 | 0.05 | 0.05 | 0.05 | 81 | 1012.7 |
| 20260509163142 | 13 | 132 | 3.2 | 6.4 | 0.00 | 0.05 | 0.05 | 79 | 1012.6 |
| 20260509162639 | 13 | 180 | 4.8 | 4.8 | 0.00 | 0.05 | 0.05 | 78 | 1012.7 |
| 20260509162134 | 13 | 161 | 3.2 | 6.4 | 0.05 | 0.05 | 0.05 | 79 | 1012.6 |
| 20260509161631 | 13 | 232 | 3.2 | 4.8 | 0.00 | 0.05 | 0.05 | 78 | 1012.6 |
| 20260509161126 | 13 | 38 | 3.2 | 3.2 | 0.00 | 0.05 | 0.05 | 80 | 1012.7 |
| 20260509160622 | 13 | 241 | 3.2 | 11.3 | 0.00 | 0.05 | 0.05 | 80 | 1012.6 |
| 20260509160118 | 13 | 139 | 0.0 | 1.6 | 0.00 | 0.05 | 0.05 | 82 | 1012.7 |
| 20260509155614 | 13 | 71 | 0.0 | 6.4 | 0.00 | 0.05 | 0.05 | 81 | 1012.6 |
| 20260509155110 | 13 | 304 | 0.0 | 3.2 | 0.00 | 0.05 | 0.05 | 82 | 1012.9 |
| 20260509154606 | 13 | 153 | 1.6 | 3.2 | 0.00 | 0.05 | 0.05 | 84 | 1012.7 |
| 20260509154104 | 13 | 106 | 0.0 | 4.8 | 0.00 | 0.05 | 0.05 | 85 | 1013.0 |
| 20260509153601 | 13 | 120 | 0.0 | 3.2 | 0.00 | 0.05 | 0.05 | 83 | 1012.9 |
| 20260509153058 | 13 | 189 | 4.8 | 4.8 | 0.00 | 0.05 | 0.05 | 84 | 1013.0 |
| 20260509152553 | 13 | 106 | 1.6 | 3.2 | 0.00 | 0.05 | 0.05 | 85 | 1012.6 |
| 20260509152051 | 13 | 77 | 3.2 | 4.8 | 0.00 | 0.05 | 0.05 | 86 | 1012.5 |
| 20260509151547 | 13 | 120 | 3.2 | 3.2 | 0.00 | 0.05 | 0.05 | 87 | 1012.7 |
| 20260509151045 | 12 | 153 | 3.2 | 4.8 | 0.00 | 0.05 | 0.05 | 86 | 1013.0 |
| 20260509150542 | 12 | 150 | 3.2 | 4.8 | 0.00 | 0.05 | 0.05 | 86 | 1013.0 |
| 20260509150041 | 12 | 147 | 3.2 | 3.2 | 0.00 | 0.05 | 0.05 | 86 | 1012.7 |
| 20260509145536 | 12 | 93 | 1.6 | 3.2 | 0.05 | 0.05 | 0.05 | 85 | 1012.8 |
| 20260509145031 | 12 | 93 | 3.2 | 3.2 | 0.05 | 0.05 | 0.05 | 84 | 1012.9 |
| 20260509144528 | 12 | 64 | 3.2 | 3.2 | 0.05 | 0.03 | 0.03 | 85 | 1012.6 |
| 20260509144026 | 12 | 85 | 1.6 | 3.2 | 0.05 | 0.03 | 0.03 | 83 | 1012.9 |
| 20260509143522 | 12 | 130 | 3.2 | 3.2 | 0.05 | 0.03 | 0.03 | 84 | 1012.9 |
| 20260509143020 | 12 | 135 | 3.2 | 4.8 | 0.13 | 0.03 | 0.03 | 82 | 1012.9 |
| 20260509142515 | 12 | 168 | 0.0 | 3.2 | 0.05 | 0.00 | 0.00 | 81 | 1012.9 |
| 20260509142011 | 12 | 110 | 3.2 | 4.8 | 0.00 | 0.00 | 0.00 | 82 | 1012.8 |
| 20260509141508 | 12 | 117 | 4.8 | 6.4 | 0.00 | 0.00 | 0.00 | 81 | 1012.8 |
| 20260509141005 | 12 | 153 | 3.2 | 4.8 | 0.00 | 0.00 | 0.00 | 81 | 1012.7 |
| 20260509140501 | 12 | 140 | 3.2 | 4.8 | 0.00 | 0.00 | 0.00 | 79 | 1012.6 |
| 20260509135959 | 12 | 110 | 3.2 | 4.8 | 0.00 | 0.00 | 0.00 | 79 | 1012.7 |
| 20260509135456 | 12 | 101 | 1.6 | 6.4 | 0.00 | 0.00 | 0.00 | 79 | 1012.7 |
| 20260509134954 | 12 | 134 | 3.2 | 6.4 | 0.00 | 0.00 | 0.00 | 78 | 1012.4 |
| 20260509134451 | 12 | 134 | 3.2 | 6.4 | 0.00 | 0.00 | 0.00 | 78 | 1012.6 |
| 20260509133949 | 12 | 201 | 1.6 | 9.7 | 0.00 | 0.00 | 0.00 | 77 | 1012.5 |
| 20260509133444 | 12 | 107 | 3.2 | 4.8 | 0.00 | 0.00 | 0.00 | 78 | 1012.4 |
| 20260509132943 | 12 | 134 | 4.8 | 4.8 | 0.00 | 0.00 | 0.00 | 78 | 1012.3 |
| 20260509132441 | 12 | 94 | 3.2 | 4.8 | 0.00 | 0.00 | 0.00 | 77 | 1012.5 |
| 20260509131937 | 12 | 112 | 3.2 | 4.8 | 0.00 | 0.00 | 0.00 | 78 | 1012.7 |
| 20260509131435 | 12 | 166 | 3.2 | 3.2 | 0.00 | 0.00 | 0.00 | 78 | 1012.6 |
| 20260509130932 | 11 | 118 | 3.2 | 3.2 | 0.00 | 0.00 | 0.00 | 78 | 1012.6 |
| 20260509130426 | 11 | 137 | 1.6 | 3.2 | 0.00 | 0.00 | 0.00 | 78 | 1012.5 |
| 20260509125924 | 11 | 175 | 3.2 | 4.8 | 0.00 | 0.00 | 0.00 | 77 | 1012.6 |
| 20260509125421 | 11 | 159 | 4.8 | 4.8 | 0.00 | 0.00 | 0.00 | 77 | 1012.9 |
| 20260509124917 | 11 | 143 | 3.2 | 4.8 | 0.00 | 0.00 | 0.00 | 78 | 1012.7 |
| 20260509124414 | 11 | 152 | 3.2 | 6.4 | 0.00 | 0.00 | 0.00 | 78 | 1012.8 |
| 20260509123911 | 11 | 158 | 4.8 | 6.4 | 0.00 | 0.00 | 0.00 | 77 | 1012.6 |
| 20260509123408 | 11 | 140 | 3.2 | 3.2 | 0.00 | 0.00 | 0.00 | 77 | 1012.7 |
| 20260509122904 | 11 | 154 | 6.4 | 6.4 | 0.00 | 0.00 | 0.00 | 77 | 1012.8 |
| 20260509122401 | 11 | 153 | 4.8 | 6.4 | 0.00 | 0.00 | 0.00 | 79 | 1012.8 |
| 20260509121858 | 11 | 166 | 3.2 | 4.8 | 0.00 | 0.00 | 0.00 | 77 | 1012.7 |
| 20260509121355 | 11 | 158 | 3.2 | 6.4 | 0.00 | 0.00 | 0.00 | 77 | 1012.7 |
| 20260509120853 | 11 | 144 | 3.2 | 4.8 | 0.00 | 0.00 | 0.00 | 77 | 1012.9 |
| 20260509120351 | 11 | 148 | 4.8 | 6.4 | 0.00 | 0.00 | 0.00 | 77 | 1012.9 |
| 20260509115848 | 11 | 170 | 4.8 | 4.8 | 0.00 | 0.00 | 0.00 | 78 | 1012.9 |
| 20260509115345 | 11 | 115 | 3.2 | 4.8 | 0.00 | 0.00 | 0.00 | 77 | 1012.8 |
| 20260509114843 | 11 | 148 | 6.4 | 6.4 | 0.00 | 0.00 | 0.00 | 77 | 1012.7 |
| 20260509114342 | 11 | 141 | 4.8 | 4.8 | 0.00 | 0.00 | 0.00 | 77 | 1012.6 |
| 20260509113841 | 11 | 112 | 1.6 | 3.2 | 0.00 | 0.00 | 0.00 | 76 | 1012.7 |
| 20260509113337 | 11 | 144 | 4.8 | 4.8 | 0.00 | 0.00 | 0.00 | 76 | 1012.6 |
| 20260509112834 | 11 | 91 | 3.2 | 4.8 | 0.00 | 0.00 | 0.00 | 77 | 1012.9 |
| 20260509112331 | 10 | 151 | 4.8 | 6.4 | 0.00 | 0.00 | 0.00 | 77 | 1012.8 |
| 20260509111828 | 10 | 162 | 4.8 | 6.4 | 0.00 | 0.00 | 0.00 | 79 | 1012.6 |
| 20260509111325 | 10 | 130 | 4.8 | 6.4 | 0.00 | 0.00 | 0.00 | 79 | 1012.3 |
| 20260509110823 | 10 | 147 | 4.8 | 6.4 | 0.00 | 0.00 | 0.00 | 78 | 1012.5 |
| 20260509110319 | 10 | 148 | 3.2 | 6.4 | 0.00 | 0.00 | 0.00 | 82 | 1012.6 |
| 20260509105817 | 10 | 120 | 4.8 | 4.8 | 0.00 | 0.00 | 0.00 | 81 | 1012.6 |
| 20260509105315 | 9 | 154 | 3.2 | 4.8 | 0.00 | 0.00 | 0.00 | 86 | 1012.5 |
| 20260509104811 | 10 | 154 | 3.2 | 3.2 | 0.00 | 0.00 | 0.00 | 87 | 1012.4 |